Kaneohe MCBH, HI

11:54 PM HST on July 21, 2017 (GMT -1000)
Kaneohe Bay Marine Corps Air Facility

Weather History for PHNG - December, 2012

Change the Weather History Date:

Tuesday, December 4, 2012

  Actual Average Record
Temperature  
Mean Temperature 76 °F -  
Max Temperature 80 °F 76 °F 84 °F (2015)
Min Temperature 73 °F 69 °F 68 °F (2005)
Cooling Degree Days 12    
Growing Degree Days 26 (Base 50)    
Moisture  
Dew Point 73 °F    
Average Humidity 89    
Maximum Humidity 100    
Minimum Humidity 73    
Precipitation  
Precipitation 0.00 in - - ()
Sea Level Pressure  
Sea Level Pressure 30.00 in    
Wind  
Wind Speed 3 mph (ESE)    
Max Wind Speed 9 mph    
Max Gust Speed -    
Visibility 9 miles    
Events Rain , Thunderstorm    
Averages and records for this station are not official NWS values.
T = Trace of Precipitation, MM = Missing Value Source: NWS Daily Summary

Daily Weather History Graph

Daily Weather History Graph

Search for Another Location

Airport or City:

Trip Planner

Search our weather history database for the weather conditions in past years. The results will help you decide how hot, cold, wet, or windy it might be!

Date:

Astronomy

Dec. 04, 2012 Rise Set
Actual Time 6:54 AM HST 5:48 PM HST
Civil Twilight 6:30 AM HST 6:12 PM HST
Nautical Twilight 6:03 AM HST 6:40 PM HST
Astronomical Twilight 5:35 AM HST 7:07 PM HST
Moon 11:17 PM HST (12/4) 11:20 AM HST (12/4)
Length of Visible Light 11h 41m
Length of Day
10h 53m
Waning Gibbous, 67% of the Moon is Illuminated
Dec 4
Waning Gibbous
Dec 6
Last Quarter
Dec 12
New
Dec 19
First Quarter
Dec 28
Full

Hourly Weather History & Observations

Time (HST) Temp. Heat Index Dew Point Humidity Pressure Visibility Wind Dir Wind Speed Gust Speed Precip Events Conditions
12:57 AM 73.4 °F - 72.0 °F 95% 29.98 in 10.0 mi South 3.5 mph - N/A   Clear
1:57 AM 73.4 °F - 71.1 °F 92% 29.97 in 10.0 mi Calm Calm - N/A   Mostly Cloudy
2:57 AM 73.4 °F - 71.6 °F 94% 29.95 in 10.0 mi Calm Calm - N/A   Mostly Cloudy
3:57 AM 73.8 °F - 70.2 °F 88% 29.94 in 10.0 mi Calm Calm - N/A   Scattered Clouds
4:57 AM 74.1 °F - 70.0 °F 87% 29.95 in 10.0 mi Calm Calm - N/A   Clear
5:57 AM 73.4 °F - 69.8 °F 88% 29.96 in 10.0 mi Calm Calm - N/A   Clear
6:57 AM 73.4 °F - 70.9 °F 92% 29.98 in 10.0 mi Calm Calm - N/A   Clear
7:57 AM 73.4 °F - 70.9 °F 92% 29.99 in 10.0 mi Calm Calm - N/A   Clear
8:57 AM 77.0 °F - 73.0 °F 88% 30.02 in 10.0 mi WNW 3.5 mph - N/A   Partly Cloudy
9:57 AM 77.0 °F - 73.0 °F 88% 30.02 in 10.0 mi South 3.5 mph - N/A   Partly Cloudy
10:57 AM 77.0 °F - 72.0 °F 84% 30.02 in 10.0 mi Variable 6.9 mph - N/A   Partly Cloudy
11:57 AM 80.6 °F 84.4 °F 71.1 °F 73% 30.00 in 10.0 mi East 6.9 mph - N/A   Scattered Clouds
12:57 PM 80.6 °F 84.4 °F 71.1 °F 73% 29.98 in 10.0 mi ESE 6.9 mph - N/A   Overcast
1:57 PM 80.6 °F 85.2 °F 73.0 °F 78% 29.96 in 10.0 mi ESE 9.2 mph - N/A Rain Light Rain
2:57 PM 80.6 °F 86.0 °F 75.0 °F 83% 29.95 in 10.0 mi ESE 5.8 mph - N/A   Mostly Cloudy
3:57 PM 80.6 °F 85.5 °F 73.9 °F 80% 29.96 in 10.0 mi ESE 8.1 mph - N/A Rain Light Rain
4:57 PM 80.6 °F 85.5 °F 73.9 °F 80% 29.97 in 10.0 mi ESE 8.1 mph - N/A   Mostly Cloudy
5:57 PM 80.6 °F 85.5 °F 73.9 °F 80% 29.97 in 10.0 mi ESE 5.8 mph - N/A   Mostly Cloudy
6:57 PM 77.0 °F - 73.0 °F 88% 29.98 in 10.0 mi ESE 5.8 mph - N/A   Mostly Cloudy
7:33 PM 77.0 °F - 73.4 °F 89% 30.01 in 6.2 mi Variable 3.5 mph - N/A Rain , Thunderstorm Thunderstorms and Rain
7:57 PM 77.0 °F - 73.0 °F 88% 30.00 in 10.0 mi SE 3.5 mph - N/A Rain , Thunderstorm Thunderstorms and Rain
8:04 PM 77.0 °F - 75.2 °F 94% 30.02 in 6.2 mi ESE 3.5 mph - N/A Rain , Thunderstorm Thunderstorms and Rain
8:49 PM 77.0 °F - 75.2 °F 94% 30.03 in 6.2 mi Calm Calm - N/A Rain , Thunderstorm Thunderstorms and Rain
8:57 PM 77.0 °F - 75.0 °F 94% 30.02 in 10.0 mi Variable 3.5 mph - N/A Rain , Thunderstorm Thunderstorms and Rain
9:05 PM 75.2 °F - 75.2 °F 100% 30.04 in 6.2 mi ESE 4.6 mph - N/A   Mostly Cloudy
9:57 PM 75.2 °F - 75.0 °F 99% 30.04 in 10.0 mi ESE 3.5 mph - N/A   Mostly Cloudy
10:04 PM 75.2 °F - 75.2 °F 100% 30.06 in 6.2 mi Calm Calm - N/A   Mostly Cloudy
10:57 PM 75.2 °F - 75.0 °F 99% 30.06 in 10.0 mi West 4.6 mph - N/A   Mostly Cloudy
11:32 PM 75.2 °F - 75.2 °F 100% 30.06 in 6.2 mi Calm Calm - N/A   Overcast
11:42 PM 75.2 °F - 75.2 °F 100% 30.06 in 6.2 mi East 5.8 mph - N/A Rain , Thunderstorm Thunderstorms and Rain